[[{"header":{"parameterUnit":"m.s-1","parameterCategory":1,"la1":30.2992,"la2":30.254,"lo1":-89.0895,"lo2":-89.0443,"dy":0.0025,"dx":0.0025,"nx":19,"ny":19,"refTime":"2026-05-04T21:00:00:Z","depth":0,"parameterNumber":2,"parameterNumberName":"U-component_of_WINDS"},"data":[0,0,0,0.2235,0.2234,0.2174,0.2174,0.2106,0.2106,0,0,0,0,0,0,0,0,0,0,0,0.2259,0.2259,0.2235,0.2234,0.2174,0.2174,0.2106,0.2106,0,0,0,0,0,0,0,0,0,0,0,0.2259,0.2259,0.2259,0.2233,0.2174,0.2174,0.2106,0.2148,0,0,0,0,0,0,0,0,0,0,0.2204,0.2234,0.2259,0.2259,0.2233,0.2174,0.2174,0.215,0.2145,0.2138,0,0.2133,0,0.2119,0.2102,0.2102,0,0,0,0.2228,0.2238,0.2216,0.2259,0.2233,0.2174,0.2199,0.2147,0.2142,0.2132,0.2132,0.213,0.2117,0.2101,0.2101,0.2074,0.2074,0,0,0.2232,0.2252,0.2219,0.2213,0.2224,0.2201,0.2198,0.2144,0.2146,0.2132,0.2128,0.2116,0.2101,0.2101,0.2074,0.2074,0,0,0,0.2245,0.2255,0.2233,0.2216,0.2204,0.22,0.2195,0.2148,0.2139,0.2127,0.2116,0.2101,0.21,0.2073,0.2074,0.2099,0,0,0,0.2246,0.2262,0.2235,0.2247,0.2206,0.2176,0.2201,0.2143,0.2137,0.2116,0.2101,0.21,0.2073,0.2073,0.2098,0.2107,0,0,0,0.2261,0.2264,0.2258,0.2248,0.2223,0.2176,0.2164,0.2141,0.213,0.2102,0.2099,0.2073,0.2073,0.2097,0.2105,0.2104,0,0,0,0.2282,0.2282,0.2259,0.2253,0.2224,0.2193,0.2164,0.214,0.2119,0.21,0.2073,0.2074,0.2096,0.2104,0.2104,0.2107,0.2111,0,0,0.2293,0.2284,0.2279,0.2256,0.2234,0.22,0.218,0.2142,0.2121,0.209,0.2089,0.2098,0.2105,0.2104,0.2124,0.2127,0,0,0,0.2289,0.2286,0.2275,0.2256,0.2226,0.2201,0.2163,0.2148,0.2121,0.211,0.2097,0.2101,0.2099,0.21,0.2102,0.2099,0.2075,0.2075,0.2075,0.2334,0.2306,0.2295,0.2259,0.2241,0.22,0.2182,0.2154,0.2133,0.213,0.2121,0.2136,0.2138,0.214,0.2136,0.2121,0.2121,0.2121,0.2121,0.2346,0.2336,0.2305,0.2284,0.2253,0.2234,0.2194,0.2178,0.2155,0.2142,0.2139,0.2126,0.2144,0.2139,0.2122,0.2122,0.2122,0.2122,0.2122,0.2372,0.2362,0.2344,0.2311,0.2289,0.2252,0.223,0.2204,0.2178,0.2175,0.2161,0.2161,0.2156,0.2171,0.2171,0.2171,0.2171,0.2171,0.2171,0.2405,0.2384,0.2369,0.2336,0.2319,0.2292,0.225,0.2232,0.2205,0.2187,0.2186,0.2163,0.2151,0.2148,0.2172,0.2171,0.2171,0.2171,0.2171,0.2427,0.2417,0.2395,0.2378,0.2335,0.2313,0.2279,0.2244,0.2225,0.2214,0.2191,0.2187,0.2176,0.2173,0.2171,0.2198,0.2198,0.2198,0.2198,0.2448,0.2439,0.2409,0.2383,0.2354,0.232,0.2293,0.2259,0.2223,0.2209,0.2201,0.2195,0.2194,0.2183,0.2181,0.2177,0.2206,0.2206,0.2206,0.2458,0.2445,0.2429,0.2393,0.2357,0.2326,0.23,0.2269,0.2226,0.2206,0.2197,0.2196,0.2187,0.2185,0.2166,0.2163,0.2157,0,0]},{"header":{"parameterUnit":"m.s-1","parameterCategory":1,"la1":30.2992,"la2":30.254,"lo1":-89.0895,"lo2":-89.0443,"dy":0.0025,"dx":0.0025,"nx":19,"ny":19,"refTime":"2026-05-04T21:00:00:Z","depth":0,"parameterNumber":3,"parameterNumberName":"V-component_of_WINDS"},"data":[0,0,0,5.1705,5.1707,5.1818,5.1819,5.1965,5.1966,0,0,0,0,0,0,0,0,0,0,0,5.1679,5.168,5.1705,5.1708,5.1818,5.1819,5.1965,5.1966,0,0,0,0,0,0,0,0,0,0,0,5.1678,5.168,5.1682,5.1708,5.1818,5.1819,5.1964,5.1878,0,0,0,0,0,0,0,0,0,0,5.1769,5.1754,5.168,5.1682,5.1709,5.1818,5.1819,5.1874,5.1884,5.1918,0,5.1954,0,5.1963,5.1977,5.1977,0,0,0,5.1702,5.1746,5.1769,5.1682,5.171,5.1818,5.1767,5.1879,5.189,5.1931,5.1956,5.1961,5.1965,5.1978,5.1979,5.2201,5.2202,0,0,5.1696,5.1702,5.1762,5.1777,5.1764,5.1763,5.177,5.1886,5.1912,5.1956,5.1964,5.1968,5.1979,5.198,5.22,5.2201,0,0,0,5.1682,5.1698,5.1719,5.1771,5.1791,5.1767,5.1775,5.1907,5.1913,5.1966,5.1969,5.198,5.1982,5.2198,5.22,5.2269,0,0,0,5.1678,5.169,5.1716,5.1722,5.1789,5.1851,5.1794,5.1905,5.1918,5.1969,5.198,5.1983,5.2197,5.2199,5.2264,5.23,0,0,0,5.1669,5.1689,5.1708,5.1722,5.177,5.1849,5.1862,5.1908,5.1921,5.1978,5.1984,5.2196,5.2199,5.226,5.2293,5.2357,0,0,0,5.1661,5.177,5.1709,5.1831,5.1769,5.1893,5.1861,5.1953,5.2011,5.1981,5.2197,5.22,5.2259,5.2288,5.2352,5.241,5.2436,0,0,5.1802,5.1787,5.1858,5.1807,5.1943,5.1876,5.2021,5.2067,5.2066,5.2155,5.216,5.2266,5.2292,5.2356,5.2584,5.2604,0,0,0,5.1904,5.1955,5.199,5.2045,5.2083,5.2116,5.214,5.2155,5.223,5.2114,5.2308,5.2324,5.2361,5.2387,5.2405,5.2434,5.2214,5.2214,5.2213,5.2112,5.2104,5.2218,5.2223,5.2276,5.2297,5.2337,5.2362,5.234,5.2385,5.2411,5.255,5.2582,5.2595,5.2625,5.2444,5.2444,5.2444,5.2444,5.2313,5.2381,5.2346,5.2445,5.2434,5.2515,5.2537,5.2518,5.2589,5.2532,5.2564,5.2498,5.2618,5.2643,5.245,5.2449,5.2448,5.2448,5.2447,5.2445,5.2475,5.2493,5.2568,5.2626,5.2625,5.2694,5.2683,5.2673,5.2705,5.2727,5.2725,5.2719,5.2717,5.2717,5.2718,5.2718,5.2718,5.2719,5.2573,5.2591,5.2651,5.2697,5.2728,5.2766,5.2785,5.2814,5.2842,5.2828,5.2828,5.2797,5.2633,5.2589,5.2726,5.2725,5.2724,5.2723,5.2723,5.2774,5.2726,5.2819,5.285,5.2899,5.2953,5.2938,5.2997,5.3019,5.3052,5.3014,5.2896,5.2879,5.2865,5.2829,5.3019,5.3019,5.3019,5.3019,5.2882,5.2873,5.2962,5.3011,5.3057,5.3051,5.315,5.3164,5.317,5.3182,5.3153,5.3105,5.3091,5.3083,5.3064,5.3029,5.3266,5.3267,5.3267,5.3002,5.2996,5.3085,5.3091,5.3128,5.3158,5.3249,5.3303,5.33,5.3276,5.3189,5.3179,5.3101,5.3077,5.3049,5.3021,5.2957,0,0]}]]